Regional Weather Roundup
Issued by NWS Goodland, KS

Home | Current Version | Previous Version | Text Only | Print | Product List | Glossary Off
Versions: 1 2 3 4 5 6 7 8 9 10 11 12 13 14 15 16 17 18 19 20 21 22 23 24 25 26 27 28 29 30 31 32 33 34 35 36 37 38 39 40 41 42 43 44 45 46 47 48 49 50

000
ASUS43 KGLD 011208
RWRGLD

GOODLAND FORECAST AREA HOURLY WEATHER ROUNDUP
NATIONAL WEATHER SERVICE GOODLAND KS
600 AM MDT MON SEP 01 2014

...OFFICIAL OBSERVATIONS...

CITY           SKY/WX    TMP DP  RH WIND       PRES   REMARKS
GOODLAND KS    CLEAR     50  49  96 NW8       30.01R
HILL CITY KS   CLEAR     57  54  89 W5        29.92R
IMPERIAL NEB   PTCLDY    52  48  86 NW6       29.98R
MCCOOK NEB     MOCLDY    56  52  86 W9        29.94S
AKRON CO       CLOUDY    52  48  86 W6        30.04R
BURLINGTON CO  CLEAR     51  47  86 NW8       30.02S
LIMON CO       CLOUDY    54  49  83 W5        30.08R
$$

...UNOFFICIAL OBSERVATIONS...

CITY           SKY/WX    TMP DP  RH WIND       PRES   REMARKS
COLBY KS       CLEAR     54  54 100 NW8       29.98R
GOVE KS          N/A     56  32  40 CALM        N/A
NORTON KS      CLOUDY    57  52  82 NW12      29.91
SHARON SPRINGS   N/A     55  51  87 N6          N/A
WAKEENEY KS      N/A     58  55  87 MISG        N/A
KIT CARSON CO    N/A     56  47  70 CALM        N/A
YUMA CO          N/A     52  48  87 CALM        N/A
$$


USA.gov is the U.S. government's official web portal to all federal, state and local government web resources and services.